Location: Dammartin
(48.9032°N, 1.6195°E)
Time: 15:17:32
(UTC+00:00)

Feng Yun 1-1 Rocket - Pass Details

Date: 03 February 2023
Orbit: 830 x 933 km, 99.1° (Epoch: 29 March)

Event Time Altitude Azimuth Distance (km) Brightness Sun altitude
Rises 18:29:55 0° 147° (SSE) 3,452 7.1 -16.0°
Reaches altitude 10° 18:32:22 10° 142° (SE) 2,503 6.4 -16.4°
Maximum altitude 18:37:43 52° 68° (ENE) 1,050 4.3 -17.2°
Drops below altitude 10° 18:43:00 10° 353° (N) 2,467 6.7 -18.1°
Sets 18:45:23 0° 349° (N) 3,398 7.4 -18.5°
